{"data":{"norad_id":58929,"epoch":"2026-05-25T04:44:46.146048Z","epoch_age_seconds":48117,"freshness":"FRESH","line1":"1 58929U 24026A   26145.19775632  .00028703  00000+0  19035-3 0  9995","line2":"2 58929  96.6216  30.2719 0003423  82.1166 278.0489 15.75452312132013","mean_motion":15.75452312,"eccentricity":0.0003423,"inclination_deg":96.6216,"raan_deg":30.2719,"arg_perigee_deg":82.1166,"mean_anomaly_deg":278.0489,"bstar":0.00019035,"rev_number":13201,"period_min":91.402322306535,"perigee_km":341.04361994456,"apogee_km":345.64514609937,"semimajor_km":6721.481383022,"source":"CELESTRAK","updated_at":"2026-05-25T13:38:01.080435Z"}}